Torna al catalogo

BEIDOU 3M5

AttivoNavigazioneMEO
NORAD 43207·PAYLOAD·🇨🇳 China

Lanciato Feb 12, 2018 da Xichang Satellite Launch Center

Loading…

Prossimi Passaggi (prossime 24 ore)

TLE

AggiornatoSource: CelesTrak SupGP

Epoca: Sep 14, 2026, 00:00 UTC

1 43207C 18018A   26257.00000000  .00000000  00000+0  00000+0 0  2571
2 43207  56.7329  60.2248 0005630  44.1669  90.6755  1.86231226    10

Traccia BEIDOU 3M5 in tempo reale con AllMySat

Download on the App Store